When you browse on this site, cookies collect data to enhance your experience and personalize the content and advertising you see.
Visit our Privacy Policy to learn more. By continuing to use the site, you agree to this use of cookies and data.
  • In Portugal
  • List of Countries
  • For 7 days
  • Water Temperature
  • Weather Map
  • Weather Widgets
  • user-avatar
    Login

    Hourly Weather Lorca

    Today, 21 August, Wednesday

    Time Temperature Precipitation Wind Pressure Humidity
    00:00 +26°C° 0 mm 4 mps 733 mmHg 83%
    01:00 +26°C° 0.4 mm 4 mps 733 mmHg 84%
    02:00 +25°C° 0.4 mm 4 mps 733 mmHg 86%
    03:00 +25°C° 0.4 mm 4 mps 733 mmHg 87%
    04:00 +25°C° 0.5 mm 4 mps 733 mmHg 87%
    05:00 +25°C° 0.5 mm 4 mps 733 mmHg 87%
    06:00 +25°C° 0.5 mm 4 mps 733 mmHg 87%
    07:00 +25°C° 0.3 mm 5 mps 733 mmHg 85%
    08:00 +25°C° 0.3 mm 5 mps 733 mmHg 82%
    09:00 +25°C° 0.3 mm 5 mps 733 mmHg 80%
    10:00 +26°C° 0.1 mm 5 mps 733 mmHg 75%
    11:00 +26°C° 0.1 mm 5 mps 733 mmHg 71%
    12:00 +27°C° 0.1 mm 5 mps 733 mmHg 66%
    13:00 +28°C° 0 mm 5 mps 733 mmHg 63%
    14:00 +28°C° 0 mm 5 mps 733 mmHg 59%
    15:00 +29°C° 0 mm 5 mps 732 mmHg 56%
    16:00 +28°C° 0 mm 6 mps 732 mmHg 57%
    17:00 +28°C° 0 mm 6 mps 732 mmHg 57%
    18:00 +27°C° 0 mm 6 mps 732 mmHg 58%
    19:00 +26°C° 0 mm 5 mps 733 mmHg 60%
    20:00 +26°C° 0 mm 4 mps 733 mmHg 62%
    21:00 +25°C° 0 mm 3 mps 733 mmHg 64%
    22:00 +24°C° 0 mm 2 mps 733 mmHg 66%
    23:00 +24°C° 0 mm 2 mps 733 mmHg 67%

    Tomorrow, 22 August, Thursday

    Time Temperature Precipitation Wind Pressure Humidity
    00:00 +24°C° 0 mm 1 mps 733 mmHg 68%
    01:00 +23°C° 0 mm 1 mps 733 mmHg 69%
    02:00 +23°C° 0 mm 1 mps 733 mmHg 70%
    03:00 +23°C° 0 mm 1 mps 733 mmHg 70%
    04:00 +23°C° 0 mm 1 mps 733 mmHg 71%
    05:00 +23°C° 0 mm 1 mps 733 mmHg 72%
    06:00 +23°C° 0 mm 1 mps 733 mmHg 72%
    07:00 +24°C° 0 mm 2 mps 733 mmHg 66%
    08:00 +25°C° 0 mm 2 mps 734 mmHg 60%
    09:00 +27°C° 0 mm 3 mps 734 mmHg 54%
    10:00 +28°C° 0 mm 3 mps 734 mmHg 50%
    11:00 +29°C° 0 mm 4 mps 734 mmHg 47%
    12:00 +30°C° 0 mm 5 mps 734 mmHg 43%
    13:00 +32°C° 0 mm 5 mps 733 mmHg 43%
    14:00 +32°C° 0 mm 5 mps 733 mmHg 42%
    15:00 +32°C° 0 mm 6 mps 733 mmHg 42%
    16:00 +30°C° 0 mm 5 mps 733 mmHg 43%
    17:00 +29°C° 0 mm 5 mps 733 mmHg 44%
    18:00 +28°C° 0 mm 5 mps 732 mmHg 45%
    19:00 +27°C° 0 mm 4 mps 733 mmHg 49%
    20:00 +27°C° 0 mm 3 mps 733 mmHg 52%
    21:00 +26°C° 0 mm 2 mps 733 mmHg 56%
    22:00 +25°C° 0 mm 2 mps 733 mmHg 58%
    23:00 +25°C° 0 mm 2 mps 733 mmHg 61%

    Day after tomorrow, 23 August, Friday

    Time Temperature Precipitation Wind Pressure Humidity
    00:00 +24°C° 0 mm 1 mps 733 mmHg 63%
    01:00 +24°C° 0 mm 1 mps 733 mmHg 64%
    02:00 +23°C° 0 mm 1 mps 733 mmHg 66%
    03:00 +23°C° 0 mm 1 mps 733 mmHg 67%
    04:00 +23°C° 0 mm 1 mps 733 mmHg 65%
    05:00 +23°C° 0 mm 1 mps 733 mmHg 62%
    06:00 +23°C° 0 mm 1 mps 733 mmHg 60%
    07:00 +25°C° 0 mm 2 mps 733 mmHg 52%
    08:00 +27°C° 0 mm 2 mps 733 mmHg 44%
    09:00 +28°C° 0 mm 3 mps 734 mmHg 35%
    10:00 +29°C° 0 mm 3 mps 734 mmHg 33%
    11:00 +30°C° 0 mm 4 mps 734 mmHg 31%
    12:00 +33°C° 0 mm 4 mps 733 mmHg 28%
    13:00 +33°C° 0 mm 5 mps 733 mmHg 30%
    14:00 +33°C° 0 mm 5 mps 733 mmHg 31%
    15:00 +33°C° 0 mm 5 mps 732 mmHg 32%
    16:00 +32°C° 0 mm 5 mps 732 mmHg 34%
    17:00 +30°C° 0 mm 4 mps 732 mmHg 37%
    18:00 +29°C° 0 mm 4 mps 732 mmHg 39%
    19:00 +28°C° 0 mm 3 mps 732 mmHg 43%
    20:00 +27°C° 0 mm 2 mps 733 mmHg 47%
    21:00 +26°C° 0 mm 1 mps 733 mmHg 51%
    22:00 +26°C° 0 mm 1 mps 733 mmHg 52%
    23:00 +26°C° 0 mm 1 mps 733 mmHg 53%

    24 August, Saturday

    Time Temperature Precipitation Wind Pressure Humidity
    00:00 +25°C° 0 mm 1 mps 733 mmHg 53%
    01:00 +23°C° 0 mm 0 mps 733 mmHg 54%
    02:00 +22°C° 0 mm 0 mps 732 mmHg 55%
    03:00 +22°C° 0 mm 0 mps 732 mmHg 55%
    04:00 +21°C° 0 mm 0 mps 732 mmHg 55%
    05:00 +21°C° 0 mm 0 mps 732 mmHg 55%
    06:00 +21°C° 0 mm 0 mps 732 mmHg 56%
    07:00 +25°C° 0 mm 1 mps 732 mmHg 48%
    08:00 +27°C° 0 mm 1 mps 733 mmHg 40%
    09:00 +29°C° 0 mm 1 mps 733 mmHg 33%
    10:00 +30°C° 0 mm 2 mps 733 mmHg 32%
    11:00 +31°C° 0 mm 3 mps 733 mmHg 31%
    12:00 +33°C° 0 mm 3 mps 733 mmHg 30%
    13:00 +33°C° 0 mm 4 mps 733 mmHg 32%
    14:00 +33°C° 0 mm 4 mps 732 mmHg 35%
    15:00 +33°C° 0 mm 4 mps 732 mmHg 37%
    16:00 +32°C° 0 mm 4 mps 732 mmHg 39%
    17:00 +31°C° 0 mm 3 mps 732 mmHg 42%
    18:00 +30°C° 0 mm 2 mps 731 mmHg 44%
    19:00 +29°C° 0 mm 2 mps 732 mmHg 47%
    20:00 +28°C° 0 mm 1 mps 732 mmHg 49%
    21:00 +27°C° 0 mm 1 mps 732 mmHg 52%
    22:00 +27°C° 0 mm 1 mps 732 mmHg 53%
    23:00 +26°C° 0 mm 1 mps 732 mmHg 54%

    25 August, Sunday

    Time Temperature Precipitation Wind Pressure Humidity
    00:00 +26°C° 0 mm 1 mps 732 mmHg 55%
    01:00 +25°C° 0 mm 1 mps 732 mmHg 57%
    02:00 +25°C° 0 mm 1 mps 731 mmHg 60%
    03:00 +22°C° 0 mm 0 mps 731 mmHg 62%
    04:00 +24°C° 0 mm 1 mps 731 mmHg 63%
    05:00 +24°C° 0 mm 1 mps 731 mmHg 65%
    06:00 +23°C° 0 mm 1 mps 731 mmHg 66%
    07:00 +25°C° 0 mm 1 mps 731 mmHg 58%
    08:00 +27°C° 0 mm 1 mps 732 mmHg 50%
    09:00 +29°C° 0 mm 2 mps 732 mmHg 42%
    10:00 +30°C° 0 mm 2 mps 732 mmHg 38%
    11:00 +33°C° 0 mm 3 mps 732 mmHg 35%
    12:00 +34°C° 0 mm 4 mps 731 mmHg 31%
    13:00 +34°C° 0 mm 4 mps 731 mmHg 32%
    14:00 +34°C° 0 mm 4 mps 731 mmHg 33%
    15:00 +34°C° 0 mm 4 mps 730 mmHg 34%
    16:00 +33°C° 0 mm 4 mps 730 mmHg 36%
    17:00 +31°C° 0 mm 3 mps 730 mmHg 38%
    18:00 +30°C° 0 mm 3 mps 730 mmHg 40%
    19:00 +30°C° 0.1 mm 3 mps 730 mmHg 41%
    20:00 +29°C° 0.1 mm 2 mps 731 mmHg 42%
    21:00 +29°C° 0.1 mm 2 mps 732 mmHg 43%
    22:00 +28°C° 0 mm 2 mps 731 mmHg 48%
    23:00 +27°C° 0 mm 1 mps 731 mmHg 53%

    26 August, Monday

    Time Temperature Precipitation Wind Pressure Humidity
    00:00 +26°C° 0 mm 1 mps 731 mmHg 58%
    01:00 +26°C° 0 mm 1 mps 731 mmHg 60%
    02:00 +25°C° 0 mm 1 mps 730 mmHg 62%
    03:00 +25°C° 0 mm 1 mps 730 mmHg 64%
    04:00 +25°C° 0.1 mm 1 mps 731 mmHg 64%
    05:00 +25°C° 0.1 mm 2 mps 731 mmHg 65%
    06:00 +24°C° 0.1 mm 2 mps 731 mmHg 66%
    07:00 +25°C° 0.2 mm 2 mps 732 mmHg 60%
    08:00 +26°C° 0.2 mm 2 mps 732 mmHg 54%
    09:00 +27°C° 0.2 mm 2 mps 733 mmHg 49%
    10:00 +29°C° 0 mm 2 mps 733 mmHg 43%
    11:00 +30°C° 0 mm 2 mps 733 mmHg 38%
    12:00 +31°C° 0 mm 2 mps 733 mmHg 33%
    13:00 +31°C° 0 mm 3 mps 733 mmHg 34%
    14:00 +31°C° 0 mm 3 mps 733 mmHg 35%
    15:00 +32°C° 0 mm 4 mps 732 mmHg 35%
    16:00 +31°C° 0 mm 3 mps 732 mmHg 39%
    17:00 +30°C° 0 mm 3 mps 732 mmHg 42%
    18:00 +30°C° 0 mm 2 mps 732 mmHg 45%
    19:00 +29°C° 0 mm 2 mps 732 mmHg 53%
    20:00 +27°C° 0 mm 2 mps 733 mmHg 62%
    21:00 +26°C° 0 mm 2 mps 733 mmHg 70%
    22:00 +25°C° 0 mm 2 mps 733 mmHg 71%
    23:00 +25°C° 0 mm 1 mps 734 mmHg 73%
    Show more